Location: ??????
(38.0677°N, 22.9870°E)
Time: 11:05:56
(UTC+00:00)

Resurs 1-4 Rocket - Pass Details

Date: 23 May 2024
Orbit: 798 x 813 km, 98.7° (Epoch: 18 June)

Event Time Altitude Azimuth Distance (km) Brightness Sun altitude
Rises 00:27:30 0° 12° (NNE) 3,312 6.5 -24.6°
Reaches altitude 10° 00:29:51 10° 12° (NNE) 2,378 5.5 -24.4°
Maximum altitude 00:35:06 84° 285° (WNW) 808 2.0 -23.8°
Enters shadow 00:36:02 61° 206° (SSW) 901 2.0 -23.7°
